KC7MRQ Weather Reports


Display with metric or nautical units.
time (UTC)temp
F
wind
direction
speed
MPH
gust
MPH
rain 1hr
in
rain 24hr
in
rain mn
in
humidity
%
barometer
mb
20260504220032 49 345 12.0 17.0 0.00 0.00 0.00 45 1010.2
20260504214531 48 20 12.0 18.0 0.00 0.00 0.00 46 1010.2
20260504213031 48 345 12.0 17.0 0.00 0.00 0.00 49 1010.3
20260504211530 47 345 11.0 17.0 0.00 0.00 0.00 49 1010.4
20260504210035 47 345 11.0 20.0 0.00 0.00 0.00 50 1010.4
20260504204532 47 345 15.0 21.0 0.00 0.00 0.00 49 1010.4
20260504203048 46 345 13.0 21.0 0.00 0.00 0.00 53 1010.3
20260504201527 46 345 12.0 21.0 0.00 0.00 0.00 53 1010.3
20260504200026 46 345 14.0 21.0 0.00 0.00 0.00 53 1010.2
20260504194525 46 345 13.0 21.0 0.00 0.00 0.00 53 1010.1
20260504193025 47 345 13.0 21.0 0.00 0.00 0.00 53 1010.1
20260504191526 47 345 13.0 22.0 0.00 0.00 0.00 52 1010.1
20260504190025 48 43 15.0 22.0 0.00 0.00 0.00 50 1010.0
20260504184524 49 354 16.0 22.0 0.00 0.00 0.00 51 1010.0
20260504183030 48 26 12.0 22.0 0.00 0.00 0.00 49 1010.0
20260504181522 49 7 13.0 18.0 0.00 0.00 0.00 49 1010.0
20260504180022 48 345 13.0 20.0 0.00 0.00 0.00 49 1010.1
20260504174522 47 345 11.0 18.0 0.00 0.00 0.00 50 1010.1
20260504173021 48 345 12.0 20.0 0.00 0.00 0.00 50 1010.1
20260504171520 47 345 11.0 23.0 0.00 0.00 0.00 50 1010.2
20260504081516 46 345 16.0 20.0 0.00 0.00 0.00 47 1006.2
20260504060106 47 345 7.0 11.0 0.00 0.00 0.00 44 1006.6
20260504050106 52 345 6.0 11.0 0.00 0.00 0.00 37 1006.7
20260504044551 51 345 7.0 9.0 0.00 0.00 0.00 40 1006.6
20260504043056 50 345 8.0 10.0 0.00 0.00 0.00 41 1006.6
20260504041548 48 345 5.0 8.0 0.00 0.00 0.00 45 1006.5
20260504040048 51 345 5.0 8.0 0.00 0.00 0.00 41 1006.5
20260504034545 53 345 4.0 5.0 0.00 0.00 0.00 36 1006.5
20260504033054 53 345 5.0 6.0 0.00 0.00 0.00 38 1006.2
20260504031551 52 345 5.0 6.0 0.00 0.00 0.00 38 1005.9
20260504030048 55 345 4.0 6.0 0.00 0.00 0.00 34 1005.6
20260504024547 57 208 5.0 7.0 0.00 0.00 0.00 30 1005.5
20260504023043 60 214 5.0 11.0 0.00 0.00 0.00 27 1005.5
20260504021541 61 212 7.0 11.0 0.00 0.00 0.00 26 1005.4
20260504020040 63 212 6.0 14.0 0.00 0.00 0.00 24 1005.5
20260504014553 64 218 9.0 15.0 0.00 0.00 0.00 24 1005.5
20260504013042 64 289 9.0 15.0 0.00 0.00 0.00 22 1005.6
20260504011539 65 287 10.0 17.0 0.00 0.00 0.00 21 1005.9
20260504010035 65 291 10.0 19.0 0.00 0.00 0.00 21 1006.0
20260504004534 66 309 11.0 17.0 0.00 0.00 0.00 21 1006.1
20260504003033 66 234 15.0 20.0 0.00 0.00 0.00 21 1006.2
20260504001537 66 219 13.0 21.0 0.00 0.00 0.00 19 1006.3
20260504000040 66 219 11.0 24.0 0.00 0.00 0.00 20 1006.4
20260503234530 67 188 9.0 20.0 0.00 0.00 0.00 21 1006.4
20260503233028 66 284 9.0 23.0 0.00 0.00 0.00 21 1006.5
20260503231527 67 306 10.0 18.0 0.00 0.00 0.00 21 1006.6
20260503230025 67 232 8.0 15.0 0.00 0.00 0.00 21 1006.7
20260503224528 67 286 10.0 23.0 0.00 0.00 0.00 20 1006.8
20260503223024 68 322 13.0 18.0 0.00 0.00 0.00 21 1006.9
20260503221520 67 271 11.0 19.0 0.00 0.00 0.00 22 1007.1